Wind_Speed
31 27 25 25 28 27 26 26 25 23 21 22 23 24 23 22 21 20 19 19 20 21 21 21 22 23 22 21 21 23 24 25
31 31 29 31 33 33 31 31 30 29 28 28 27 26 26 27 26 26 25 24 24 24 24 24 25 24 23 24 23 24 25 25
35 33 36 31 33 37 36 36 35 34 30 28 29 30 31 31 30 28 26 26 26 27 27 26 26 25 24 25 24 25 26 27
40 37 34 35 33 35 40 40 40 37 33 32 31 32 31 30 31 31 28 28 28 28 28 27 27 25 25 25 25 26 27 28
43 42 40 37 37 38 39 41 42 40 37 34 33 33 33 33 33 32 29 29 29 29 29 28 27 26 25 25 27 27 28 29
43 44 42 41 38 38 43 45 43 40 38 36 35 34 37 36 35 32 31 31 30 30 29 29 28 27 28 28 29 30 30 31
36 35 38 46 47 44 43 43 43 42 37 38 37 36 38 38 36 35 33 33 32 30 30 29 28 28 28 29 30 31 32 33
40 36 39 38 42 44 44 44 43 44 40 40 41 42 41 40 38 36 37 34 32 31 31 29 28 27 29 32 32 32 31 32
41 37 38 35 40 43 40 42 41 42 39 38 38 39 39 36 35 38 41 37 33 31 32 30 29 30 35 33 33 34 32 32
41 40 32 31 30 32 34 40 40 42 42 37 38 41 37 38 38 43 39 42 42 37 33 33 32 34 33 32 32 34 33 32
43 40 40 38 37 34 39 37 37 41 42 43 41 41 39 37 39 41 42 42 44 43 36 36 40 39 36 34 34 34 32 31
51 43 45 38 41 29 33 39 40 41 44 46 44 41 40 40 40 38 38 36 35 38 40 38 39 38 36 35 34 34 33 32
64 59 48 47 51 50 43 40 39 35 34 45 41 41 44 46 42 38 40 40 40 41 42 41 34 33 34 34 34 34 32 33
63 64 62 55 48 49 47 42 39 38 39 40 41 43 40 44 44 40 38 40 41 39 37 34 33 34 33 33 34 33 33 33
52 56 60 62 61 57 50 50 49 48 51 47 47 45 44 42 43 42 39 38 35 33 33 33 33 33 33 33 34 33 33 33
46 50 54 56 53 51 57 57 52 50 45 51 56 54 51 51 51 50 43 38 36 34 33 32 33 34 34 35 35 34 33 34
45 52 55 56 51 47 39 54 56 51 53 49 53 55 57 54 51 46 43 39 37 35 35 34 34 35 36 36 35 35 34 34
47 48 57 59 57 54 48 47 49 54 56 55 63 51 50 48 46 46 41 37 36 36 36 36 36 37 37 36 35 35 35 34
52 45 51 59 64 63 62 48 48 47 50 54 46 44 48 46 42 41 41 40 38 39 36 37 37 38 37 36 36 36 35 34
Wind_Direction
221 222 226 232 235 240 244 250 252 252 256 257 259 266 269 274 278 285 293 298 299 300 303 305 302 303 303 306 313 315 309 304
229 226 237 239 241 242 246 251 255 257 259 261 263 268 273 277 279 279 286 293 297 298 300 302 303 306 303 305 309 311 308 302
242 237 235 239 239 246 245 247 250 251 252 257 262 265 269 273 277 281 287 290 290 292 294 296 299 301 300 299 304 307 305 299
242 242 242 239 235 236 245 244 246 246 249 255 260 264 268 273 275 278 283 285 287 286 286 290 293 295 298 298 299 302 299 296
239 239 240 244 238 233 238 245 247 248 252 256 259 263 269 271 274 277 278 280 280 281 284 287 289 292 294 296 297 298 297 293
235 234 234 238 240 235 234 238 243 247 254 257 262 265 267 271 274 276 277 279 280 282 284 285 286 288 292 296 297 296 294 293
238 239 237 239 237 241 239 240 243 246 248 255 260 265 268 272 275 277 278 279 280 281 282 282 284 286 289 295 294 293 293 292
236 233 244 247 238 238 239 240 241 245 246 249 256 262 267 271 275 277 278 278 279 280 280 283 285 285 292 293 290 289 289 289
243 232 239 241 229 235 238 241 242 248 250 247 253 259 264 267 271 280 275 276 276 279 280 280 285 287 293 291 288 287 288 289
241 243 232 231 232 234 235 242 247 252 254 255 254 256 257 269 271 278 273 268 273 281 280 282 285 293 286 285 283 284 287 290
243 243 236 229 230 236 239 241 241 244 249 252 252 255 260 263 270 271 276 269 268 273 274 280 288 291 287 284 283 282 285 289
240 236 233 211 223 220 226 234 239 245 248 251 253 257 260 264 268 274 274 274 274 269 273 280 282 285 279 279 281 281 282 283
245 240 235 223 231 231 223 226 236 240 250 249 252 254 259 263 269 269 271 272 270 271 274 278 279 276 276 276 275 275 277 283
244 250 246 239 225 226 221 225 231 241 247 251 249 246 250 257 258 261 266 268 267 268 268 270 270 273 272 272 273 274 277 281
245 243 246 248 244 243 240 248 248 247 247 244 245 246 245 250 246 255 261 267 261 260 262 266 270 267 270 269 269 271 275 279
246 246 238 241 242 245 245 245 246 237 237 242 244 245 246 246 247 252 255 253 257 257 260 263 266 266 265 265 266 269 272 277
240 241 246 242 235 233 236 234 237 238 237 241 244 249 247 249 248 247 243 248 254 258 259 261 264 263 262 262 263 267 272 275
239 237 241 244 244 238 236 240 245 248 247 243 246 241 245 250 246 244 250 254 254 257 259 261 262 261 261 261 263 266 270 274
244 242 240 243 244 248 250 244 243 248 253 250 244 243 248 245 241 243 249 255 257 258 259 262 262 260 259 261 263 266 270 274
Height
5821 5823 5824 5826 5828 5831 5837 5841 5843 5845 5847 5848 5848 5850 5851 5852 5852 5852 5852 5852 5851 5849 5848 5847 5846 5844 5842 5840 5838 5836 5834 5832
5814 5816 5818 5820 5822 5824 5830 5835 5838 5840 5842 5843 5845 5846 5847 5847 5847 5847 5847 5847 5846 5844 5843 5842 5840 5839 5837 5834 5834 5831 5829 5827
5803 5808 5810 5813 5817 5817 5822 5828 5831 5833 5835 5838 5839 5839 5840 5841 5841 5842 5843 5842 5841 5840 5838 5837 5835 5834 5832 5830 5829 5827 5825 5822
5794 5798 5803 5806 5810 5815 5816 5819 5823 5826 5828 5830 5832 5833 5834 5834 5835 5836 5837 5837 5836 5835 5834 5833 5831 5830 5828 5826 5824 5822 5820 5818
5787 5791 5794 5797 5802 5805 5808 5811 5815 5818 5821 5823 5824 5826 5828 5828 5829 5830 5831 5830 5830 5829 5828 5827 5826 5825 5823 5820 5819 5817 5815 5813
5776 5781 5784 5787 5791 5796 5799 5802 5806 5810 5813 5815 5817 5819 5820 5821 5823 5824 5824 5824 5823 5823 5823 5821 5820 5819 5817 5815 5812 5810 5809 5807
5766 5771 5773 5777 5781 5786 5790 5794 5799 5802 5805 5807 5809 5810 5812 5813 5815 5816 5816 5816 5817 5816 5816 5815 5813 5812 5811 5809 5807 5804 5801 5799
5753 5757 5762 5767 5771 5776 5780 5783 5788 5792 5795 5798 5801 5802 5803 5805 5807 5808 5808 5808 5809 5809 5808 5807 5807 5805 5804 5802 5801 5799 5796 5794
5745 5752 5755 5757 5761 5764 5769 5773 5778 5781 5785 5789 5792 5793 5795 5796 5798 5799 5800 5800 5800 5800 5800 5800 5800 5798 5797 5795 5793 5792 5790 5788
5733 5741 5744 5749 5751 5755 5760 5766 5769 5773 5775 5779 5781 5784 5786 5787 5788 5789 5790 5791 5791 5792 5792 5792 5792 5790 5789 5787 5785 5785 5783 5782
5725 5731 5735 5739 5743 5746 5750 5755 5759 5762 5765 5769 5771 5774 5776 5778 5779 5780 5781 5782 5783 5783 5783 5783 5783 5782 5781 5780 5778 5778 5777 5776
5714 5721 5726 5727 5732 5734 5739 5745 5750 5753 5756 5759 5762 5765 5767 5769 5770 5771 5771 5772 5773 5774 5774 5774 5773 5772 5772 5771 5770 5770 5769 5768
5702 5712 5718 5722 5725 5728 5731 5734 5737 5742 5745 5747 5751 5753 5757 5758 5760 5761 5762 5763 5763 5764 5764 5764 5763 5763 5763 5763 5762 5762 5761 5761
5691 5699 5708 5714 5718 5719 5720 5722 5726 5730 5734 5738 5739 5741 5744 5747 5750 5751 5751 5752 5752 5753 5754 5754 5754 5755 5755 5754 5755 5754 5753 5752
5680 5686 5692 5699 5707 5712 5712 5715 5719 5722 5723 5725 5727 5730 5733 5735 5738 5740 5742 5743 5743 5744 5744 5745 5746 5746 5746 5746 5746 5745 5745 5744
5670 5674 5678 5683 5690 5695 5702 5705 5707 5708 5710 5713 5716 5717 5720 5722 5725 5729 5732 5733 5735 5735 5736 5737 5737 5737 5737 5737 5737 5737 5737 5736
5659 5664 5666 5670 5676 5683 5687 5691 5693 5696 5696 5702 5704 5706 5709 5712 5714 5718 5720 5722 5725 5726 5727 5728 5728 5729 5729 5728 5728 5729 5728 5727
5648 5653 5656 5661 5667 5669 5674 5679 5682 5687 5688 5689 5690 5692 5697 5700 5704 5708 5710 5712 5714 5717 5718 5719 5719 5720 5720 5720 5720 5720 5720 5718
5636 5642 5647 5650 5654 5658 5663 5666 5669 5673 5676 5679 5673 5679 5686 5690 5694 5699 5702 5703 5705 5707 5708 5710 5710 5711 5711 5712 5712 5711 5710 5709